Time,TemperatureF,DewpointF,PressureIn,WindDirection,WindDirectionDegrees,WindSpeedMPH,WindSpeedGustMPH,Humidity,HourlyPrecipIn,Conditions,Clouds,dailyrainin,SolarRadiationWatts/m^2,SoftwareType,DateUTC
2013-01-18 00:05:00,46.5,23.0,30.40,ESE,111,10.0,16.0,39,0.00,,,0.00,0,weatherlink.com 1.10,2013-01-18 07:05:00,
2013-01-18 00:20:00,46.7,23.0,30.39,SE,124,6.0,14.0,39,0.00,,,0.00,0,weatherlink.com 1.10,2013-01-18 07:20:00,
2013-01-18 00:35:00,46.5,23.0,30.39,ESE,107,13.0,17.0,39,0.00,,,0.00,0,weatherlink.com 1.10,2013-01-18 07:35:00,
2013-01-18 00:50:00,46.7,22.0,30.39,ESE,122,14.0,15.0,38,0.00,,,0.00,0,weatherlink.com 1.10,2013-01-18 07:50:00,
2013-01-18 01:06:00,46.3,22.0,30.39,ESE,107,5.0,14.0,38,0.00,,,0.00,0,weatherlink.com 1.10,2013-01-18 08:06:00,
2013-01-18 01:20:00,46.0,21.0,30.39,ESE,119,11.0,15.0,38,0.00,,,0.00,0,weatherlink.com 1.10,2013-01-18 08:20:00,
2013-01-18 01:35:00,45.7,21.0,30.39,ESE,112,5.0,13.0,38,0.00,,,0.00,0,weatherlink.com 1.10,2013-01-18 08:35:00,
2013-01-18 01:50:00,45.6,21.0,30.39,ESE,111,9.0,11.0,38,0.00,,,0.00,0,weatherlink.com 1.10,2013-01-18 08:50:00,
2013-01-18 02:05:00,46.0,21.0,30.38,SE,128,7.0,13.0,38,0.00,,,0.00,0,weatherlink.com 1.10,2013-01-18 09:05:00,
2013-01-18 02:20:00,46.0,21.0,30.38,ESE,112,9.0,12.0,37,0.00,,,0.00,0,weatherlink.com 1.10,2013-01-18 09:20:00,
2013-01-18 02:35:00,45.8,21.0,30.37,SE,132,5.0,12.0,38,0.00,,,0.00,0,weatherlink.com 1.10,2013-01-18 09:35:00,
2013-01-18 02:50:00,45.4,21.0,30.37,ESE,111,5.0,10.0,38,0.00,,,0.00,0,weatherlink.com 1.10,2013-01-18 09:50:00,
2013-01-18 03:05:00,45.1,21.0,30.36,ESE,110,8.0,9.0,38,0.00,,,0.00,0,weatherlink.com 1.10,2013-01-18 10:05:00,
2013-01-18 03:20:00,45.5,21.0,30.36,East,97,1.0,9.0,38,0.00,,,0.00,0,weatherlink.com 1.10,2013-01-18 10:20:00,
2013-01-18 03:35:00,45.6,21.0,30.36,ESE,107,4.0,8.0,37,0.00,,,0.00,0,weatherlink.com 1.10,2013-01-18 10:35:00,
2013-01-18 03:50:00,45.0,21.0,30.35,ENE,67,1.0,7.0,38,0.00,,,0.00,0,weatherlink.com 1.10,2013-01-18 10:50:00,
2013-01-18 04:05:00,43.1,21.0,30.35,ENE,67,2.0,3.0,41,0.00,,,0.00,0,weatherlink.com 1.10,2013-01-18 11:05:00,
2013-01-18 04:20:00,41.6,20.0,30.34,NE,38,0.0,5.0,43,0.00,,,0.00,0,weatherlink.com 1.10,2013-01-18 11:20:00,
2013-01-18 04:35:00,41.7,21.0,30.34,North,5,5.0,7.0,44,0.00,,,0.00,0,weatherlink.com 1.10,2013-01-18 11:35:00,
2013-01-18 04:50:00,42.0,21.0,30.34,North,5,3.0,6.0,43,0.00,,,0.00,0,weatherlink.com 1.10,2013-01-18 11:50:00,
2013-01-18 05:05:00,40.2,20.0,30.34,North,5,4.0,6.0,45,0.00,,,0.00,0,weatherlink.com 1.10,2013-01-18 12:05:00,
2013-01-18 05:20:00,39.7,20.0,30.34,NNE,20,5.0,7.0,46,0.00,,,0.00,0,weatherlink.com 1.10,2013-01-18 12:20:00,
2013-01-18 05:35:00,39.4,21.0,30.34,NNE,22,4.0,6.0,48,0.00,,,0.00,0,weatherlink.com 1.10,2013-01-18 12:35:00,
2013-01-18 05:50:00,38.7,21.0,30.34,NNE,22,5.0,6.0,49,0.00,,,0.00,0,weatherlink.com 1.10,2013-01-18 12:50:00,
2013-01-18 06:05:00,37.7,19.0,30.34,NNE,22,0.0,3.0,47,0.00,,,0.00,0,weatherlink.com 1.10,2013-01-18 13:05:00,
2013-01-18 06:20:00,38.7,20.0,30.34,NNE,22,0.0,2.0,47,0.00,,,0.00,0,weatherlink.com 1.10,2013-01-18 13:20:00,
2013-01-18 06:36:00,35.1,18.0,30.33,NNE,22,0.0,1.0,49,0.00,,,0.00,0,weatherlink.com 1.10,2013-01-18 13:36:00,
2013-01-18 06:51:00,36.8,20.0,30.33,ENE,57,3.0,5.0,50,0.00,,,0.00,0,weatherlink.com 1.10,2013-01-18 13:51:00,
2013-01-18 07:06:00,42.2,20.0,30.33,SE,127,3.0,8.0,41,0.00,,,0.00,5,weatherlink.com 1.10,2013-01-18 14:06:00,
2013-01-18 07:21:00,41.8,20.0,30.33,SE,127,4.0,4.0,41,0.00,,,0.00,12,weatherlink.com 1.10,2013-01-18 14:21:00,
2013-01-18 07:36:00,42.2,20.0,30.33,SE,127,2.0,5.0,42,0.00,,,0.00,21,weatherlink.com 1.10,2013-01-18 14:36:00,
2013-01-18 07:51:00,42.2,20.0,30.33,SE,127,0.0,2.0,42,0.00,,,0.00,74,weatherlink.com 1.10,2013-01-18 14:51:00,
2013-01-18 08:06:00,42.2,21.0,30.33,SE,127,0.0,0.0,43,0.00,,,0.00,128,weatherlink.com 1.10,2013-01-18 15:06:00,
2013-01-18 08:21:00,43.6,21.0,30.34,SE,127,0.0,2.0,41,0.00,,,0.00,188,weatherlink.com 1.10,2013-01-18 15:21:00,
2013-01-18 08:36:00,44.6,21.0,30.34,SE,127,0.0,0.0,40,0.00,,,0.00,234,weatherlink.com 1.10,2013-01-18 15:36:00,
2013-01-18 08:51:00,45.0,21.0,30.34,SE,127,0.0,0.0,39,0.00,,,0.00,265,weatherlink.com 1.10,2013-01-18 15:51:00,
2013-01-18 09:06:00,45.6,22.0,30.35,SE,127,3.0,4.0,39,0.00,,,0.00,285,weatherlink.com 1.10,2013-01-18 16:06:00,
2013-01-18 09:21:00,46.3,22.0,30.36,SE,127,4.0,5.0,38,0.00,,,0.00,385,weatherlink.com 1.10,2013-01-18 16:21:00,
2013-01-18 09:36:00,46.5,22.0,30.36,SE,127,0.0,4.0,38,0.00,,,0.00,424,weatherlink.com 1.10,2013-01-18 16:36:00,
2013-01-18 09:51:00,47.0,22.0,30.36,SE,138,1.0,5.0,37,0.00,,,0.00,445,weatherlink.com 1.10,2013-01-18 16:51:00,
2013-01-18 10:06:00,47.6,22.0,30.36,South,187,0.0,4.0,36,0.00,,,0.00,482,weatherlink.com 1.10,2013-01-18 17:06:00,
2013-01-18 10:21:00,48.2,22.0,30.36,SSW,194,0.0,2.0,35,0.00,,,0.00,515,weatherlink.com 1.10,2013-01-18 17:21:00,
2013-01-18 10:36:00,49.2,22.0,30.35,SSW,194,0.0,3.0,34,0.00,,,0.00,524,weatherlink.com 1.10,2013-01-18 17:36:00,
2013-01-18 10:51:00,49.8,22.0,30.34,SSW,194,1.0,2.0,33,0.00,,,0.00,575,weatherlink.com 1.10,2013-01-18 17:51:00,
2013-01-18 11:06:00,50.3,21.0,30.33,SSW,194,0.0,7.0,31,0.00,,,0.00,599,weatherlink.com 1.10,2013-01-18 18:06:00,
2013-01-18 11:22:00,50.8,21.0,30.32,SSW,194,0.0,7.0,31,0.00,,,0.00,524,weatherlink.com 1.10,2013-01-18 18:22:00,
2013-01-18 11:37:00,51.0,21.0,30.31,SSW,196,3.0,8.0,31,0.00,,,0.00,629,weatherlink.com 1.10,2013-01-18 18:37:00,
2013-01-18 11:52:00,51.6,21.0,30.30,SSW,207,3.0,7.0,30,0.00,,,0.00,617,weatherlink.com 1.10,2013-01-18 18:52:00,
2013-01-18 12:07:00,52.1,21.0,30.29,SSW,210,1.0,14.0,29,0.00,,,0.00,635,weatherlink.com 1.10,2013-01-18 19:07:00,
2013-01-18 12:22:00,52.3,21.0,30.27,SSW,213,0.0,7.0,29,0.00,,,0.00,538,weatherlink.com 1.10,2013-01-18 19:22:00,
2013-01-18 12:37:00,53.1,21.0,30.26,SSW,202,1.0,8.0,28,0.00,,,0.00,591,weatherlink.com 1.10,2013-01-18 19:37:00,
2013-01-18 12:52:00,53.3,20.0,30.25,SSW,197,1.0,6.0,27,0.00,,,0.00,631,weatherlink.com 1.10,2013-01-18 19:52:00,
2013-01-18 13:07:00,53.9,20.0,30.24,SW,220,0.0,6.0,27,0.00,,,0.00,615,weatherlink.com 1.10,2013-01-18 20:07:00,
2013-01-18 13:22:00,55.0,20.0,30.23,South,187,3.0,8.0,25,0.00,,,0.00,605,weatherlink.com 1.10,2013-01-18 20:22:00,
2013-01-18 13:37:00,55.2,20.0,30.23,SSW,200,0.0,6.0,25,0.00,,,0.00,533,weatherlink.com 1.10,2013-01-18 20:37:00,
2013-01-18 13:52:00,55.4,20.0,30.23,SSW,200,1.0,8.0,25,0.00,,,0.00,554,weatherlink.com 1.10,2013-01-18 20:52:00,
2013-01-18 14:07:00,55.9,19.0,30.22,SSW,211,0.0,6.0,24,0.00,,,0.00,485,weatherlink.com 1.10,2013-01-18 21:07:00,
2013-01-18 14:22:00,57.5,20.0,30.22,South,173,3.0,8.0,23,0.00,,,0.00,427,weatherlink.com 1.10,2013-01-18 21:22:00,
2013-01-18 14:37:00,56.7,19.0,30.22,South,180,0.0,6.0,23,0.00,,,0.00,464,weatherlink.com 1.10,2013-01-18 21:37:00,
2013-01-18 14:52:00,57.1,19.0,30.22,SSW,200,0.0,7.0,23,0.00,,,0.00,438,weatherlink.com 1.10,2013-01-18 21:52:00,
2013-01-18 15:07:00,57.1,19.0,30.22,SSW,194,1.0,7.0,23,0.00,,,0.00,394,weatherlink.com 1.10,2013-01-18 22:07:00,
2013-01-18 15:22:00,57.2,20.0,30.21,SSW,213,0.0,7.0,23,0.00,,,0.00,350,weatherlink.com 1.10,2013-01-18 22:22:00,
2013-01-18 15:37:00,57.2,18.0,30.21,South,180,1.0,7.0,22,0.00,,,0.00,304,weatherlink.com 1.10,2013-01-18 22:37:00,
2013-01-18 15:52:00,57.2,18.0,30.21,South,184,0.0,6.0,22,0.00,,,0.00,221,weatherlink.com 1.10,2013-01-18 22:52:00,
2013-01-18 16:07:00,56.7,18.0,30.21,South,188,2.0,8.0,22,0.00,,,0.00,132,weatherlink.com 1.10,2013-01-18 23:07:00,
2013-01-18 16:22:00,56.3,19.0,30.20,South,188,3.0,7.0,23,0.00,,,0.00,98,weatherlink.com 1.10,2013-01-18 23:22:00,
2013-01-18 16:37:00,54.6,19.0,30.20,SSW,192,1.0,6.0,25,0.00,,,0.00,44,weatherlink.com 1.10,2013-01-18 23:37:00,
2013-01-18 16:52:00,53.6,19.0,30.21,SSW,192,1.0,5.0,26,0.00,,,0.00,35,weatherlink.com 1.10,2013-01-18 23:52:00,
2013-01-18 17:07:00,52.8,19.0,30.21,SSW,192,0.0,2.0,26,0.00,,,0.00,21,weatherlink.com 1.10,2013-01-19 00:07:00,
2013-01-18 17:22:00,52.1,19.0,30.21,SSW,192,0.0,0.0,27,0.00,,,0.00,5,weatherlink.com 1.10,2013-01-19 00:22:00,
2013-01-18 17:37:00,50.8,19.0,30.22,SSW,192,0.0,0.0,28,0.00,,,0.00,0,weatherlink.com 1.10,2013-01-19 00:37:00,
2013-01-18 17:52:00,47.5,17.0,30.22,SSW,192,0.0,0.0,29,0.00,,,0.00,0,weatherlink.com 1.10,2013-01-19 00:52:00,
2013-01-18 18:07:00,43.9,17.0,30.22,SSW,192,1.0,2.0,34,0.00,,,0.00,0,weatherlink.com 1.10,2013-01-19 01:07:00,
2013-01-18 18:22:00,43.7,18.0,30.22,South,178,1.0,4.0,35,0.00,,,0.00,0,weatherlink.com 1.10,2013-01-19 01:22:00,
2013-01-18 18:37:00,43.8,18.0,30.22,SSE,165,4.0,5.0,35,0.00,,,0.00,0,weatherlink.com 1.10,2013-01-19 01:37:00,
2013-01-18 18:52:00,43.4,17.0,30.22,SE,144,4.0,5.0,35,0.00,,,0.00,0,weatherlink.com 1.10,2013-01-19 01:52:00,
2013-01-18 19:07:00,42.6,17.0,30.23,SE,125,6.0,6.0,36,0.00,,,0.00,0,weatherlink.com 1.10,2013-01-19 02:07:00,
2013-01-18 19:22:00,42.8,17.0,30.23,ESE,110,5.0,7.0,36,0.00,,,0.00,0,weatherlink.com 1.10,2013-01-19 02:22:00,
2013-01-18 19:37:00,42.4,18.0,30.23,ESE,107,4.0,7.0,37,0.00,,,0.00,0,weatherlink.com 1.10,2013-01-19 02:37:00,
2013-01-18 19:52:00,41.4,18.0,30.23,East,93,5.0,8.0,39,0.00,,,0.00,0,weatherlink.com 1.10,2013-01-19 02:52:00,
2013-01-18 20:07:00,41.8,18.0,30.23,East,93,6.0,7.0,38,0.00,,,0.00,0,weatherlink.com 1.10,2013-01-19 03:07:00,
2013-01-18 20:22:00,41.6,18.0,30.23,East,93,5.0,7.0,38,0.00,,,0.00,0,weatherlink.com 1.10,2013-01-19 03:22:00,
2013-01-18 20:37:00,41.4,18.0,30.23,East,93,5.0,6.0,39,0.00,,,0.00,0,weatherlink.com 1.10,2013-01-19 03:37:00,
2013-01-18 20:52:00,41.1,18.0,30.23,East,93,5.0,7.0,40,0.00,,,0.00,0,weatherlink.com 1.10,2013-01-19 03:52:00,
2013-01-18 21:07:00,40.8,18.0,30.23,East,93,5.0,6.0,40,0.00,,,0.00,0,weatherlink.com 1.10,2013-01-19 04:07:00,
2013-01-18 21:22:00,40.9,18.0,30.23,East,93,7.0,7.0,40,0.00,,,0.00,0,weatherlink.com 1.10,2013-01-19 04:22:00,
2013-01-18 21:37:00,41.1,18.0,30.23,East,93,6.0,7.0,39,0.00,,,0.00,0,weatherlink.com 1.10,2013-01-19 04:37:00,
2013-01-18 21:52:00,40.9,18.0,30.23,East,93,6.0,7.0,39,0.00,,,0.00,0,weatherlink.com 1.10,2013-01-19 04:52:00,
2013-01-18 22:07:00,40.2,18.0,30.23,East,93,3.0,6.0,40,0.00,,,0.00,0,weatherlink.com 1.10,2013-01-19 05:07:00,
2013-01-18 22:22:00,39.2,17.0,30.23,East,93,5.0,6.0,41,0.00,,,0.00,0,weatherlink.com 1.10,2013-01-19 05:22:00,
2013-01-18 22:37:00,38.0,17.0,30.24,East,93,3.0,6.0,43,0.00,,,0.00,0,weatherlink.com 1.10,2013-01-19 05:37:00,
2013-01-18 22:52:00,37.9,18.0,30.24,East,93,5.0,6.0,44,0.00,,,0.00,0,weatherlink.com 1.10,2013-01-19 05:52:00,
2013-01-18 23:07:00,37.9,18.0,30.24,East,93,5.0,6.0,44,0.00,,,0.00,0,weatherlink.com 1.10,2013-01-19 06:07:00,
2013-01-18 23:22:00,37.7,18.0,30.24,East,93,5.0,6.0,45,0.00,,,0.00,0,weatherlink.com 1.10,2013-01-19 06:22:00,
2013-01-18 23:37:00,38.0,18.0,30.23,East,93,5.0,7.0,45,0.00,,,0.00,0,weatherlink.com 1.10,2013-01-19 06:37:00,
2013-01-18 23:53:00,38.1,18.0,30.23,East,93,6.0,7.0,44,0.00,,,0.00,0,weatherlink.com 1.10,2013-01-19 06:53:00,